Wildwood, NJ

7:07 PM EST on February 20, 2018 (GMT -0500)
Cape May County

Weather History for KWWD - February, 2013

Change the Weather History Date:

Monday, February 18, 2013

  Actual Average Record
Temperature  
Mean Temperature 29 °F -  
Max Temperature 35 °F 42 °F 69 °F (2011)
Min Temperature 23 °F 30 °F 12 °F (2015)
Degree Days  
Heating Degree Days 36    
Moisture  
Dew Point 11 °F    
Average Humidity 46    
Maximum Humidity 56    
Minimum Humidity 37    
Precipitation  
Precipitation 0.00 in - - ()
Sea Level Pressure  
Sea Level Pressure 30.27 in    
Wind  
Wind Speed 14 mph (West)    
Max Wind Speed 25 mph    
Max Gust Speed 34 mph    
Visibility 10 miles    
Events      
Averages and records for this station are not official NWS values.
T = Trace of Precipitation, MM = Missing Value Source: NWS Daily Summary

Daily Weather History Graph

Daily Weather History Graph

Search for Another Location

Airport or City:

Trip Planner

Search our weather history database for the weather conditions in past years. The results will help you decide how hot, cold, wet, or windy it might be!

Date:

Astronomy

Feb. 18, 2013 Rise Set
Actual Time 6:46 AM EST 5:40 PM EST
Civil Twilight 6:19 AM EST 6:07 PM EST
Nautical Twilight 5:48 AM EST 6:39 PM EST
Astronomical Twilight 5:17 AM EST 7:09 PM EST
Moon 11:26 AM EST (2/18) 1:23 AM EST (2/18)
Length of Visible Light 11h 48m
Length of Day
10h 53m
First Quarter, 58% of the Moon is Illuminated
Feb 18
First Quarter
Feb 25
Full
Mar 4
Last Quarter
Mar 11
New
Mar 19
First Quarter

Hourly Weather History & Observations

Time (EST) Temp. Windchill Dew Point Humidity Pressure Visibility Wind Dir Wind Speed Gust Speed Precip Events Conditions
12:15 AM 26.6 °F 12.7 °F 5.0 °F 40% 30.09 in 10.0 mi NW 20.7 mph 29.9 mph N/A   Mostly Cloudy
12:35 AM 26.6 °F 12.7 °F 5.0 °F 40% 30.11 in 10.0 mi WNW 20.7 mph 31.1 mph N/A   Mostly Cloudy
12:55 AM 26.6 °F 11.4 °F 3.2 °F 37% 30.13 in 10.0 mi WNW 25.3 mph 32.2 mph N/A   Overcast
1:15 AM 24.8 °F 12.4 °F 5.0 °F 43% 30.14 in 10.0 mi NW 15.0 mph 31.1 mph N/A   Overcast
1:35 AM 24.8 °F 11.1 °F 5.0 °F 43% 30.14 in 10.0 mi NW 18.4 mph 29.9 mph N/A   Overcast
1:55 AM 24.8 °F 10.7 °F 5.0 °F 43% 30.14 in 10.0 mi NW 19.6 mph 33.4 mph N/A   Mostly Cloudy
2:15 AM 24.8 °F 11.5 °F 5.0 °F 43% 30.16 in 10.0 mi WNW 17.3 mph 34.5 mph N/A   Overcast
2:35 AM 24.8 °F 12.4 °F 6.8 °F 46% 30.16 in 10.0 mi NW 15.0 mph 26.5 mph N/A   Mostly Cloudy
2:55 AM 24.8 °F 12.4 °F 6.8 °F 46% 30.17 in 10.0 mi WNW 15.0 mph 26.5 mph N/A   Mostly Cloudy
3:15 AM 24.8 °F 11.9 °F 6.8 °F 46% 30.17 in 10.0 mi WNW 16.1 mph 27.6 mph N/A   Scattered Clouds
3:35 AM 24.8 °F 11.9 °F 6.8 °F 46% 30.18 in 10.0 mi NW 16.1 mph 23.0 mph N/A   Scattered Clouds
3:55 AM 24.8 °F 11.9 °F 6.8 °F 46% 30.18 in 10.0 mi NW 16.1 mph 24.2 mph N/A   Partly Cloudy
4:15 AM 24.8 °F 14.0 °F 6.8 °F 46% 30.19 in 10.0 mi WNW 11.5 mph 27.6 mph N/A   Partly Cloudy
4:55 AM 24.8 °F 13.4 °F 6.8 °F 46% 30.22 in 10.0 mi WNW 12.7 mph 28.8 mph N/A   Partly Cloudy
5:15 AM 24.8 °F 12.4 °F 6.8 °F 46% 30.23 in 10.0 mi WNW 15.0 mph 24.2 mph N/A   Scattered Clouds
5:35 AM 23.0 °F 10.6 °F 6.8 °F 50% 30.25 in 10.0 mi WNW 13.8 mph 24.2 mph N/A   Partly Cloudy
5:55 AM 23.0 °F 11.7 °F 6.8 °F 50% 30.26 in 10.0 mi WNW 11.5 mph 21.9 mph N/A   Clear
6:15 AM 23.0 °F 10.1 °F 6.8 °F 50% 30.26 in 10.0 mi WNW 15.0 mph 19.6 mph N/A   Clear
6:35 AM 23.0 °F 10.1 °F 6.8 °F 50% 30.27 in 10.0 mi WNW 15.0 mph 21.9 mph N/A   Clear
6:55 AM 23.0 °F 10.1 °F 6.8 °F 50% 30.28 in 10.0 mi WNW 15.0 mph 21.9 mph N/A   Clear
7:15 AM 24.8 °F 12.9 °F 6.8 °F 46% 30.29 in 10.0 mi WNW 13.8 mph 23.0 mph N/A   Clear
7:35 AM 24.8 °F 13.4 °F 6.8 °F 46% 30.30 in 10.0 mi WNW 12.7 mph 23.0 mph N/A   Clear
7:55 AM 24.8 °F 13.4 °F 6.8 °F 46% 30.31 in 10.0 mi WNW 12.7 mph 26.5 mph N/A   Clear
8:15 AM 24.8 °F 13.4 °F 6.8 °F 46% 30.33 in 10.0 mi WNW 12.7 mph 23.0 mph N/A   Clear
8:35 AM 24.8 °F 12.4 °F 6.8 °F 46% 30.33 in 10.0 mi WNW 15.0 mph 25.3 mph N/A   Clear
8:55 AM 26.6 °F 15.2 °F 8.6 °F 47% 30.34 in 10.0 mi WNW 13.8 mph 24.2 mph N/A   Clear
9:15 AM 26.6 °F 16.2 °F 8.6 °F 47% 30.34 in 10.0 mi WNW 11.5 mph 19.6 mph N/A   Clear
9:35 AM 26.6 °F 14.3 °F 8.6 °F 47% 30.34 in 10.0 mi WNW 16.1 mph 24.2 mph N/A   Clear
9:55 AM 26.6 °F 14.7 °F 8.6 °F 47% 30.34 in 10.0 mi WNW 15.0 mph 25.3 mph N/A   Clear
10:15 AM 26.6 °F 15.2 °F 8.6 °F 47% 30.35 in 10.0 mi West 13.8 mph 24.2 mph N/A   Clear
10:35 AM 28.4 °F 16.6 °F 8.6 °F 43% 30.35 in 10.0 mi WNW 16.1 mph 21.9 mph N/A   Clear
10:55 AM 28.4 °F 16.2 °F 10.4 °F 47% 30.35 in 10.0 mi WNW 17.3 mph 25.3 mph N/A   Clear
11:15 AM 28.4 °F 15.8 °F 10.4 °F 47% 30.34 in 10.0 mi WNW 18.4 mph 21.9 mph N/A   Clear
11:35 AM 28.4 °F 16.2 °F 10.4 °F 47% 30.34 in 10.0 mi West 17.3 mph 24.2 mph N/A   Clear
11:55 AM 28.4 °F 17.5 °F 10.4 °F 47% 30.33 in 10.0 mi WNW 13.8 mph 21.9 mph N/A   Clear
12:15 PM 30.2 °F 20.2 °F 10.4 °F 44% 30.33 in 10.0 mi West 12.7 mph 20.7 mph N/A   Clear
12:35 PM 30.2 °F 21.3 °F 10.4 °F 44% 30.31 in 10.0 mi NW 10.4 mph 18.4 mph N/A   Clear
12:55 PM 30.2 °F 19.3 °F 12.2 °F 47% 30.30 in 10.0 mi West 15.0 mph 18.4 mph N/A   Clear
1:15 PM 30.2 °F 19.8 °F 10.4 °F 44% 30.30 in 10.0 mi WNW 13.8 mph - N/A   Clear
1:35 PM 32.0 °F 22.5 °F 12.2 °F 44% 30.29 in 10.0 mi WNW 12.7 mph - N/A   Clear
1:55 PM 32.0 °F 23.0 °F 12.2 °F 44% 30.29 in 10.0 mi West 11.5 mph 18.4 mph N/A   Clear
2:15 PM 33.8 °F 27.0 °F 12.2 °F 41% 30.29 in 10.0 mi West 8.1 mph 17.3 mph N/A   Clear
2:35 PM 33.8 °F 25.3 °F 12.2 °F 41% 30.28 in 10.0 mi West 11.5 mph - N/A   Clear
2:55 PM 33.8 °F 25.8 °F 14.0 °F 44% 30.28 in 10.0 mi West 10.4 mph 17.3 mph N/A   Clear
3:15 PM 35.6 °F 27.5 °F 14.0 °F 41% 30.28 in 10.0 mi West 11.5 mph - N/A   Clear
3:35 PM 35.6 °F 28.6 °F 14.0 °F 41% 30.28 in 10.0 mi West 9.2 mph - N/A   Clear
3:55 PM 35.6 °F 27.5 °F 14.0 °F 41% 30.28 in 10.0 mi West 11.5 mph - N/A   Clear
4:15 PM 35.6 °F 28.0 °F 12.2 °F 38% 30.28 in 10.0 mi West 10.4 mph - N/A   Clear
4:35 PM 35.6 °F 29.9 °F 12.2 °F 38% 30.27 in 10.0 mi West 6.9 mph - N/A   Clear
4:55 PM 35.6 °F 29.9 °F 12.2 °F 38% 30.27 in - West 6.9 mph - N/A   Clear
5:15 PM 35.6 °F 30.7 °F 12.2 °F 38% 30.27 in - West 5.8 mph - N/A   Clear
5:35 PM 33.8 °F 29.6 °F 12.2 °F 41% 30.28 in - West 4.6 mph - N/A   Clear
5:55 PM 33.8 °F 29.6 °F 12.2 °F 41% 30.28 in - West 4.6 mph - N/A   Clear
6:15 PM 33.8 °F 29.6 °F 14.0 °F 44% 30.28 in - WSW 4.6 mph - N/A   Clear
6:35 PM 33.8 °F 28.6 °F 14.0 °F 44% 30.29 in - West 5.8 mph - N/A   Clear
6:55 PM 33.8 °F 27.7 °F 14.0 °F 44% 30.29 in - WSW 6.9 mph - N/A   Clear
7:15 PM 33.8 °F 29.6 °F 14.0 °F 44% 30.29 in 10.0 mi WSW 4.6 mph - N/A   Clear
7:35 PM 33.8 °F 29.6 °F 12.2 °F 41% 30.30 in - SW 4.6 mph - N/A   Clear
7:55 PM 33.8 °F 29.6 °F 14.0 °F 44% 30.30 in - SW 4.6 mph - N/A   Clear
8:15 PM 32.0 °F 28.7 °F 15.8 °F 51% 30.29 in - SW 3.5 mph - N/A   Clear
8:35 PM 32.0 °F 27.5 °F 14.0 °F 48% 30.29 in - SSW 4.6 mph - N/A   Clear
8:55 PM 30.2 °F 24.3 °F 15.8 °F 55% 30.29 in - SSW 5.8 mph - N/A   Clear
9:15 PM 30.2 °F 23.4 °F 15.8 °F 55% 30.29 in - SSW 6.9 mph - N/A   Clear
9:35 PM 30.2 °F 23.4 °F 15.8 °F 55% 30.28 in - SSW 6.9 mph - N/A   Clear
9:55 PM 30.2 °F 24.3 °F 15.8 °F 55% 30.27 in - SSW 5.8 mph - N/A   Clear
10:15 PM 32.0 °F 25.6 °F 17.6 °F 55% 30.27 in - South 6.9 mph - N/A   Clear
10:35 PM 33.8 °F 26.4 °F 17.6 °F 52% 30.27 in - SSW 9.2 mph - N/A   Clear
10:55 PM 35.6 °F 27.5 °F 17.6 °F 48% 30.26 in 10.0 mi South 11.5 mph - N/A   Clear
11:15 PM 35.6 °F 27.5 °F 19.4 °F 52% 30.25 in 10.0 mi South 11.5 mph - N/A   Clear
11:35 PM 35.6 °F 28.6 °F 19.4 °F 52% 30.25 in 10.0 mi South 9.2 mph - N/A   Clear
11:55 PM 35.6 °F 28.6 °F 21.2 °F 56% 30.24 in 10.0 mi South 9.2 mph - N/A   Clear